FW5442 Weather Reports


Display with metric or nautical units.
time (UTC)temp
F
wind
direction
speed
MPH
gust
MPH
rain 1hr
in
rain 24hr
in
rain mn
in
humidity
%
barometer
mb
20260905195053 98 60 4.0 10.0 0.00 0.00 0.00 40 1010.9
20260905194603 99 75 5.0 10.0 0.00 0.00 0.00 40 1011.0
20260905194054 100 119 5.0 10.0 0.00 0.00 0.00 39 1011.1
20260905193553 101 210 2.0 10.0 0.00 0.00 0.00 40 1011.2
20260905193104 100 62 3.0 10.0 0.00 0.00 0.00 39 1011.2
20260905192553 99 338 5.0 10.0 0.00 0.00 0.00 40 1011.2
20260905192056 101 332 5.0 9.0 0.00 0.00 0.00 39 1011.2
20260905191601 101 84 4.0 9.0 0.00 0.00 0.00 39 1011.2
20260905191052 101 349 5.0 9.0 0.00 0.00 0.00 38 1011.5
20260905190600 100 131 3.0 11.0 0.00 0.00 0.00 40 1011.5
20260905190104 101 288 1.0 11.0 0.00 0.00 0.00 39 1011.5
20260905185558 100 27 3.0 11.0 0.00 0.00 0.00 39 1011.8
20260905185053 100 130 4.0 15.0 0.00 0.00 0.00 41 1011.7
20260905184611 100 352 6.0 15.0 0.00 0.00 0.00 40 1011.8
20260905184053 99 31 8.0 15.0 0.00 0.00 0.00 40 1012.1
20260905183553 99 1 2.0 7.0 0.00 0.00 0.00 40 1012.1
20260905183119 99 245 3.0 10.0 0.00 0.00 0.00 42 1012.0
20260905182553 98 31 4.0 10.0 0.00 0.00 0.00 42 1012.2
20260905182052 96 55 4.0 8.0 0.00 0.00 0.00 45 1012.2
20260905181602 98 76 4.0 13.0 0.00 0.00 0.00 42 1012.3
20260905181053 99 86 4.0 13.0 0.00 0.00 0.00 41 1012.4
20260905180557 99 284 3.0 11.0 0.00 0.00 0.00 42 1012.5
20260905175554 99 351 3.0 10.0 0.00 0.00 0.00 42 1012.6
20260905175054 98 6 1.0 11.0 0.00 0.00 0.00 42 1012.7
20260905174605 98 15 4.0 11.0 0.00 0.00 0.00 41 1012.7
20260905174053 100 325 4.0 8.0 0.00 0.00 0.00 40 1012.7
20260905173552 99 319 3.0 11.0 0.00 0.00 0.00 42 1012.8
20260905173100 98 92 5.0 11.0 0.00 0.00 0.00 41 1012.8
20260905172555 98 249 2.0 11.0 0.00 0.00 0.00 44 1012.9
20260905172055 97 0 4.0 10.0 0.00 0.00 0.00 44 1012.9
20260905171557 98 324 3.0 10.0 0.00 0.00 0.00 43 1012.9
20260905171053 97 59 4.0 10.0 0.00 0.00 0.00 43 1013.0
20260905170553 97 296 2.0 11.0 0.00 0.00 0.00 45 1013.0
20260905165552 96 72 6.0 11.0 0.00 0.00 0.00 45 1013.3
20260905165052 96 354 3.0 11.0 0.00 0.00 0.00 44 1013.4
20260905164602 96 355 4.0 11.0 0.00 0.00 0.00 44 1013.4
20260905164054 96 321 3.0 7.0 0.00 0.00 0.00 44 1013.5
20260905163555 97 348 3.0 9.0 0.00 0.00 0.00 44 1013.5
20260905163058 96 95 1.0 10.0 0.00 0.00 0.00 46 1013.5
20260905162556 96 2 4.0 10.0 0.00 0.00 0.00 46 1013.6
20260905162053 95 304 4.0 10.0 0.00 0.00 0.00 48 1013.5
20260905161608 95 330 3.0 10.0 0.00 0.00 0.00 48 1013.6
20260905161053 94 333 6.0 9.0 0.00 0.00 0.00 48 1013.6
20260905160555 94 352 3.0 9.0 0.00 0.00 0.00 49 1013.6
20260905160104 94 311 6.0 12.0 0.00 0.00 0.00 50 1013.7
20260905155554 93 353 5.0 12.0 0.00 0.00 0.00 51 1013.5
20260905155057 93 355 4.0 9.0 0.00 0.00 0.00 51 1013.8
20260905154559 93 319 4.0 10.0 0.00 0.00 0.00 53 1013.7
20260905154054 92 307 4.0 10.0 0.00 0.00 0.00 53 1013.7
20260905153553 92 302 4.0 12.0 0.00 0.00 0.00 53 1013.8
20260905153116 92 355 5.0 12.0 0.00 0.00 0.00 53 1013.7
20260905152553 92 327 4.0 12.0 0.00 0.00 0.00 53 1013.7
20260905152052 91 312 4.0 9.0 0.00 0.00 0.00 55 1013.8
20260905151608 91 313 4.0 12.0 0.00 0.00 0.00 55 1013.7
20260905151053 90 302 4.0 12.0 0.00 0.00 0.00 56 1013.8
20260905150557 90 323 7.0 12.0 0.00 0.00 0.00 57 1013.8
20260905150103 90 295 6.0 12.0 0.00 0.00 0.00 57 1013.7
20260905145555 89 290 5.0 11.0 0.00 0.00 0.00 59 1013.7
20260905145055 89 311 8.0 12.0 0.00 0.00 0.00 59 1013.7
20260905144558 89 276 8.0 13.0 0.00 0.00 0.00 59 1013.7
20260905144058 88 269 8.0 15.0 0.00 0.00 0.00 59 1013.9
20260905143553 88 302 9.0 15.0 0.00 0.00 0.00 58 1013.7
20260905143105 88 286 9.0 14.0 0.00 0.00 0.00 59 1013.7
20260905142552 88 309 9.0 14.0 0.00 0.00 0.00 60 1013.8
20260905142055 87 317 9.0 14.0 0.00 0.00 0.00 60 1013.7
20260905141607 87 297 8.0 12.0 0.00 0.00 0.00 63 1013.8
20260905141133 86 333 6.0 12.0 0.00 0.00 0.00 63 1013.6
20260905140557 86 317 6.0 9.0 0.00 0.00 0.00 66 1013.8
20260905140109 86 320 7.0 9.0 0.00 0.00 0.00 66 1013.7
20260905135556 85 274 6.0 9.0 0.00 0.00 0.00 67 1013.8
20260905135053 85 338 5.0 11.0 0.00 0.00 0.00 68 1013.8
20260905134602 84 301 7.0 11.0 0.00 0.00 0.00 68 1013.8
20260905134055 84 323 7.0 11.0 0.00 0.00 0.00 68 1013.8
20260905133553 84 285 5.0 8.0 0.00 0.00 0.00 70 1013.7
20260905133100 83 294 5.0 7.0 0.00 0.00 0.00 73 1013.8
20260905132555 82 321 3.0 5.0 0.00 0.00 0.00 74 1013.8
20260905132057 82 307 2.0 5.0 0.00 0.00 0.00 76 1013.8
20260905131614 81 295 2.0 4.0 0.00 0.00 0.00 79 1013.7
20260905131054 81 333 2.0 4.0 0.00 0.00 0.00 80 1013.6
20260905130559 80 321 2.0 4.0 0.00 0.00 0.00 82 1013.7
20260905130105 80 318 1.0 4.0 0.00 0.00 0.00 82 1013.6
20260905125555 79 330 2.0 4.0 0.00 0.00 0.00 82 1013.6
20260905125055 79 316 1.0 2.0 0.00 0.00 0.00 84 1013.6
20260905124600 79 0 0.0 1.0 0.00 0.00 0.00 84 1013.7
20260905124055 79 0 0.0 0.0 0.00 0.00 0.00 84 1013.6
20260905123555 78 0 0.0 0.0 0.00 0.00 0.00 86 1013.9
20260905123101 77 0 0.0 1.0 0.00 0.00 0.00 87 1013.8
20260905122555 76 0 0.0 1.0 0.00 0.00 0.00 88 1013.8
20260905122055 76 0 0.0 1.0 0.00 0.00 0.00 89 1013.8
20260905121848 76 0 0.0 2.0 0.00 0.00 0.00 89 1013.8
20260905121339 75 0 1.0 3.0 0.00 0.00 0.00 90 1013.7
20260905120559 75 217 2.0 3.0 0.00 0.00 0.00 89 1013.7
20260905120105 76 235 3.0 3.0 0.00 0.00 0.00 89 1013.8
20260905115601 76 239 3.0 3.0 0.00 0.00 0.00 89 1013.6
20260905115059 76 255 1.0 2.0 0.00 0.00 0.00 89 1013.5
20260905114602 75 283 1.0 2.0 0.00 0.00 0.00 90 1013.4
20260905114058 75 285 0.0 2.0 0.00 0.00 0.00 91 1013.4
20260905113601 74 223 0.0 2.0 0.00 0.00 0.00 92 1013.4
20260905113101 74 215 1.0 2.0 0.00 0.00 0.00 91 1013.4
20260905112558 75 202 2.0 2.0 0.00 0.00 0.00 91 1013.2
20260905112101 74 191 2.0 2.0 0.00 0.00 0.00 92 1013.1
20260905112043 74 176 2.0 2.0 0.00 0.00 0.00 91 1013.2
20260905111058 74 169 1.0 2.0 0.00 0.00 0.00 90 1013.3
20260905110558 75 180 1.0 1.0 0.00 0.00 0.00 91 1013.3
20260905103916 75 233 1.0 2.0 0.00 0.00 0.00 90 1013.0
20260905102554 75 230 1.0 1.0 0.00 0.00 0.00 90 1013.1
20260905102054 75 236 1.0 3.0 0.00 0.00 0.00 90 1013.1
20260905101601 75 216 1.0 3.0 0.00 0.00 0.00 90 1013.1
20260905101053 75 210 3.0 3.0 0.00 0.00 0.00 89 1013.1
20260905100553 76 223 2.0 3.0 0.00 0.00 0.00 89 1013.3
20260905100121 76 0 0.0 0.0 0.00 0.00 0.00 89 1013.2
20260905095555 76 0 0.0 0.0 0.00 0.00 0.00 89 1013.2
20260905095052 75 0 0.0 0.0 0.00 0.00 0.00 89 1013.1
20260905094600 75 0 0.0 0.0 0.00 0.00 0.00 89 1013.3
20260905094057 75 0 0.0 0.0 0.00 0.00 0.00 89 1013.3
20260905093558 76 0 0.0 0.0 0.00 0.00 0.00 89 1013.2
20260905093100 76 0 0.0 0.0 0.00 0.00 0.00 89 1013.2
20260905092559 76 0 0.0 0.0 0.00 0.00 0.00 89 1013.2
20260905092058 76 0 0.0 0.0 0.00 0.00 0.00 89 1013.1
20260905091601 76 0 0.0 0.0 0.00 0.00 0.00 88 1013.1
20260905091058 76 0 0.0 1.0 0.00 0.00 0.00 88 1013.0
20260905090559 75 0 0.0 2.0 0.00 0.00 0.00 88 1013.0
20260905090136 76 238 1.0 2.0 0.00 0.00 0.00 88 1013.1
20260905085558 76 238 1.0 2.0 0.00 0.00 0.00 88 1013.2
20260905085100 76 255 0.0 2.0 0.00 0.00 0.00 88 1013.1
20260905084559 76 221 2.0 2.0 0.00 0.00 0.00 89 1013.2
20260905084057 76 221 1.0 2.0 0.00 0.00 0.00 88 1013.1
20260905083557 76 215 2.0 3.0 0.00 0.00 0.00 88 1013.1
20260905083058 76 212 1.0 3.0 0.00 0.00 0.00 88 1013.1
20260905082558 76 179 3.0 3.0 0.00 0.00 0.00 88 1013.0
20260905082058 76 169 0.0 2.0 0.00 0.00 0.00 88 1012.9
20260905081604 76 221 1.0 2.0 0.00 0.00 0.00 88 1012.9
20260905081058 76 227 2.0 4.0 0.00 0.00 0.00 88 1012.9
20260905080558 76 237 2.0 4.0 0.00 0.00 0.00 87 1012.9
20260905080106 77 215 3.0 4.0 0.00 0.00 0.00 87 1012.9
20260905075558 77 251 1.0 2.0 0.00 0.00 0.00 87 1012.9
20260905075058 77 239 2.0 2.0 0.00 0.00 0.00 87 1012.9
20260905074608 77 231 2.0 2.0 0.00 0.00 0.00 87 1012.9
20260905074059 77 227 1.0 2.0 0.00 0.00 0.00 87 1012.8
20260905073559 77 0 0.0 1.0 0.00 0.00 0.00 86 1012.9
20260905073107 77 0 0.0 1.0 0.00 0.00 0.00 86 1012.9
20260905072559 77 0 0.0 1.0 0.00 0.00 0.00 86 1013.0
20260905072057 77 0 0.0 1.0 0.00 0.00 0.00 86 1013.0
20260905071602 77 0 0.0 2.0 0.00 0.00 0.00 86 1012.9
20260905071057 77 150 1.0 2.0 0.00 0.00 0.00 86 1012.8
20260905070557 77 165 1.0 3.0 0.00 0.00 0.00 85 1013.1
20260905065558 77 162 3.0 4.0 0.00 0.00 0.00 86 1012.9
20260905065057 77 165 4.0 4.0 0.00 0.00 0.00 85 1013.0
20260905064603 77 159 2.0 4.0 0.00 0.00 0.00 85 1013.0
20260905064058 77 150 3.0 4.0 0.00 0.00 0.00 85 1012.9
20260905063557 77 138 2.0 3.0 0.00 0.00 0.00 85 1013.0
20260905063226 77 151 2.0 3.0 0.00 0.00 0.00 85 1012.8
20260905063054 78 136 3.0 3.0 0.00 0.00 0.00 85 1012.9
20260905062051 78 150 2.0 4.0 0.00 0.00 0.00 84 1012.8
20260905061559 77 156 3.0 5.0 0.00 0.00 0.00 85 1012.7
20260905061053 77 153 3.0 5.0 0.00 0.00 0.00 84 1012.8
20260905060554 77 148 4.0 5.0 0.00 0.00 0.00 83 1012.9
20260905060106 78 149 4.0 4.0 0.00 0.00 0.00 82 1012.7
20260905055554 79 146 2.0 3.0 0.00 0.00 0.00 81 1012.8
20260905055055 79 146 0.0 2.0 0.00 0.00 0.00 80 1012.6
20260905054557 79 0 0.0 0.0 0.00 0.00 0.00 80 1012.7
20260905054051 79 0 0.0 0.0 0.00 0.00 0.00 80 1012.5
20260905053552 79 0 0.0 0.0 0.00 0.00 0.00 80 1012.7
20260905053102 79 0 0.0 0.0 0.00 0.00 0.00 80 1012.6
20260905052551 79 0 0.0 0.0 0.00 0.00 0.00 80 1012.5
20260905052055 79 0 0.0 0.0 0.00 0.00 0.00 80 1012.4
20260905051746 79 0 0.0 0.0 0.00 0.00 0.00 80 1012.4
20260905051600 79 0 0.0 0.0 0.00 0.00 0.00 80 1012.4
20260905051152 79 0 0.0 0.0 0.00 0.00 0.00 80 1012.5
20260905050552 79 0 0.0 0.0 0.00 0.00 0.00 80 1012.6
20260905050109 80 0 0.0 0.0 0.00 0.00 0.00 79 1012.7
20260905045552 80 0 0.0 0.0 0.00 0.00 0.00 79 1012.7
20260905045052 80 0 0.0 0.0 0.00 0.00 0.00 79 1012.6
20260905044559 80 0 0.0 0.0 0.00 0.00 0.00 78 1012.7
20260905044054 80 0 0.0 0.0 0.00 0.00 0.00 79 1012.7
20260905043555 80 0 0.0 0.0 0.00 0.00 0.00 80 1012.6
20260905043103 80 0 0.0 0.0 0.00 0.00 0.00 80 1012.6
20260905042551 80 0 0.0 0.0 0.00 0.00 0.00 79 1012.7
20260905042051 80 0 0.0 0.0 0.00 0.00 0.00 79 1012.7
20260905041602 80 0 0.0 1.0 0.00 0.00 0.00 79 1012.6
20260905041054 80 0 0.0 1.0 0.00 0.00 0.00 79 1012.6
20260905040554 80 0 0.0 1.0 0.00 0.00 0.00 78 1012.5
20260905035555 81 0 0.0 0.0 0.00 0.00 0.00 76 1012.7
20260905035054 81 0 0.0 0.0 0.00 0.00 0.00 76 1012.8
20260905034601 81 0 0.0 0.0 0.00 0.00 0.00 75 1012.8
20260905034055 81 0 0.0 0.0 0.00 0.00 0.00 75 1012.7
20260905033554 82 0 0.0 0.0 0.00 0.00 0.00 74 1012.7
20260905033105 81 0 0.0 0.0 0.00 0.00 0.00 74 1012.6
20260905032554 81 0 0.0 0.0 0.00 0.00 0.00 75 1012.8
20260905032054 81 0 0.0 0.0 0.00 0.00 0.00 75 1012.8
20260905031614 81 0 0.0 0.0 0.00 0.00 0.00 75 1012.9
20260905031058 81 0 0.0 0.0 0.00 0.00 0.00 75 1012.8
20260905030555 81 0 0.0 0.0 0.00 0.00 0.00 74 1012.7
20260905030056 81 0 0.0 1.0 0.00 0.00 0.00 74 1012.8
20260905025554 82 0 0.0 3.0 0.00 0.00 0.00 73 1012.8
20260905025124 82 155 1.0 3.0 0.00 0.00 0.00 74 1012.8
20260905024601 82 141 2.0 3.0 0.00 0.00 0.00 74 1012.8
20260905024056 81 140 2.0 3.0 0.00 0.00 0.00 74 1012.7
20260905023553 81 153 2.0 3.0 0.00 0.00 0.00 74 1012.6
20260905023101 81 0 0.0 0.0 0.00 0.00 0.00 74 1012.9
20260905022553 82 0 0.0 0.0 0.00 0.00 0.00 73 1012.9
20260905022056 82 0 0.0 0.0 0.00 0.00 0.00 72 1012.8
20260905021600 82 0 0.0 0.0 0.00 0.00 0.00 72 1012.8
20260905021059 82 0 0.0 0.0 0.00 0.00 0.00 72 1012.7
20260905020557 82 0 0.0 0.0 0.00 0.00 0.00 71 1012.7
20260905015553 82 0 0.0 0.0 0.00 0.00 0.00 71 1012.5
20260905015054 83 0 0.0 0.0 0.00 0.00 0.00 71 1012.5
20260905014559 83 0 0.0 0.0 0.00 0.00 0.00 71 1012.5
20260905014056 83 0 0.0 0.0 0.00 0.00 0.00 71 1012.4
20260905013557 82 0 0.0 0.0 0.00 0.00 0.00 71 1012.4
20260905013105 83 0 0.0 0.0 0.00 0.00 0.00 70 1012.4
20260905012555 83 0 0.0 0.0 0.00 0.00 0.00 70 1012.4
20260905012054 83 0 0.0 2.0 0.00 0.00 0.00 70 1012.3
20260905011606 83 0 0.0 3.0 0.00 0.00 0.00 69 1012.4
20260905011100 83 309 1.0 5.0 0.00 0.00 0.00 69 1012.4
20260905010557 83 162 3.0 5.0 0.00 0.00 0.00 69 1012.3
20260905010110 84 160 3.0 5.0 0.00 0.00 0.00 68 1012.4
20260905005556 85 143 3.0 6.0 0.00 0.00 0.00 66 1012.4
20260905005053 85 194 5.0 6.0 0.00 0.00 0.00 65 1012.5
20260905004603 85 180 4.0 5.0 0.00 0.00 0.00 64 1012.3
20260905004056 86 169 2.0 4.0 0.00 0.00 0.00 64 1012.4
20260905003558 86 185 2.0 3.0 0.00 0.00 0.00 64 1012.4
20260905003100 86 157 1.0 4.0 0.00 0.00 0.00 63 1012.7
20260905002552 87 0 0.0 4.0 0.00 0.00 0.00 63 1012.5
20260905002057 87 134 3.0 4.0 0.00 0.00 0.00 62 1012.6
20260905001611 88 173 2.0 4.0 0.00 0.00 0.00 61 1012.5
20260905001056 88 150 2.0 6.0 0.00 0.00 0.00 61 1012.5
20260905000557 88 161 4.0 6.0 0.00 0.00 0.00 60 1012.3
20260905000108 89 160 4.0 6.0 0.00 0.00 0.00 57 1012.3
20260904235556 89 213 4.0 7.0 0.00 0.00 0.00 57 1012.3
20260904235054 89 221 5.0 7.0 0.00 0.00 0.00 57 1012.3
20260904234607 88 230 6.0 8.0 0.00 0.00 0.00 57 1012.3
20260904234053 88 228 5.0 9.0 0.00 0.00 0.00 57 1012.2
20260904233554 88 230 7.0 12.0 0.00 0.00 0.00 58 1012.2
20260904233058 88 235 8.0 13.0 0.00 0.00 0.00 58 1012.2
20260904232554 87 243 10.0 14.0 0.00 0.00 0.00 58 1012.2
20260904232053 87 261 10.0 14.0 0.00 0.00 0.00 58 1012.2
20260904231557 87 240 12.0 14.0 0.00 0.00 0.00 58 1012.2
20260904231055 88 252 12.0 15.0 0.00 0.00 0.00 58 1012.0
20260904230554 88 226 11.0 19.0 0.00 0.00 0.00 57 1012.0
20260904230113 89 217 15.0 19.0 0.00 0.00 0.00 56 1012.1
20260904225553 90 218 14.0 19.0 0.00 0.00 0.00 54 1012.0
20260904225053 92 202 12.0 19.0 0.00 0.00 0.00 52 1012.0
20260904224602 93 160 13.0 18.0 0.00 0.00 0.00 49 1011.7
20260904224056 94 169 12.0 18.0 0.00 0.00 0.00 47 1011.7
20260904223555 95 124 10.0 18.0 0.00 0.00 0.00 44 1011.6
20260904223105 96 100 6.0 8.0 0.00 0.00 0.00 42 1011.4
20260904222553 97 110 2.0 5.0 0.00 0.00 0.00 41 1011.3
20260904222054 98 90 2.0 5.0 0.00 0.00 0.00 38 1011.4
20260904221608 98 85 0.0 3.0 0.00 0.00 0.00 37 1011.4
20260904221056 99 96 0.0 5.0 0.00 0.00 0.00 37 1011.4
20260904220554 99 85 1.0 7.0 0.00 0.00 0.00 37 1011.2
20260904220121 99 93 2.0 7.0 0.00 0.00 0.00 38 1011.2
20260904215554 100 80 4.0 6.0 0.00 0.00 0.00 38 1011.3
20260904215053 100 117 4.0 6.0 0.00 0.00 0.00 38 1011.3
20260904214603 100 109 4.0 8.0 0.00 0.00 0.00 39 1011.2
20260904214053 99 124 3.0 8.0 0.00 0.00 0.00 39 1011.2
20260904213553 100 115 4.0 8.0 0.00 0.00 0.00 37 1011.5
20260904213108 100 187 1.0 6.0 0.00 0.00 0.00 36 1011.5
20260904212553 100 37 4.0 6.0 0.00 0.00 0.00 37 1011.4
20260904212054 100 328 0.0 5.0 0.00 0.00 0.00 38 1011.4
20260904211607 99 0 1.0 6.0 0.00 0.00 0.00 39 1011.6
20260904211053 97 319 4.0 10.0 0.00 0.00 0.00 40 1011.7
20260904210556 97 326 3.0 10.0 0.00 0.00 0.00 41 1011.7
20260904205553 97 337 7.0 12.0 0.00 0.00 0.00 42 1011.5
20260904205053 98 323 6.0 14.0 0.00 0.00 0.00 41 1011.6
20260904204606 98 352 4.0 14.0 0.00 0.00 0.00 40 1011.7
20260904204055 99 309 5.0 14.0 0.00 0.00 0.00 40 1011.8
20260904203554 98 6 3.0 10.0 0.00 0.00 0.00 42 1011.9
20260904203057 99 342 4.0 12.0 0.00 0.00 0.00 41 1011.9
20260904202555 98 269 6.0 14.0 0.00 0.00 0.00 42 1012.1
20260904202055 98 176 7.0 14.0 0.00 0.00 0.00 42 1012.2
20260904201606 98 275 7.0 14.0 0.00 0.00 0.00 43 1012.3
20260904201052 98 250 5.0 13.0 0.00 0.00 0.00 42 1012.4
20260904200553 98 156 6.0 10.0 0.00 0.00 0.00 43 1012.6
20260904200110 98 265 1.0 13.0 0.00 0.00 0.00 43 1012.7
20260904195557 96 294 3.0 15.0 0.00 0.00 0.00 44 1012.7